Погода в Шиели

Погода в Шиели : погода сейчас, прогноз погоды и архив. Всё, что Вы хотите узнать о погоде в Шиели!

Хотите узнать прогноз погоды в Шиели? Тогда Вам сюда: Погода в Шиели

Поиск расширенной информации на нашем сайте:

Другие новости

Новости СМИ2

Главная страница сайта

Новости сайта

03.07.2017

Напоминаем, что на нашем специализированном сайте Метеоцентр.Азия вы можете получить высокодетализированные автоматические прогнозы погоды по пунктам России, СНГ и мира в авиационном формате (включающие направление и скорость ветра, видимость, явления погоды, количество и форму облачности, нижнюю и верхнюю границу облачности).


Погода в Шиели - сегодня

Время (UTC), дата Ветер
(°,м/с) 
Видим.   Явления Облачность Т
(°С)
Тd
(°С)
f(%) Тe
(°С)
Pmin
(гПа)
dP
(гПа)
Po
(мм)
O2
(г/м3)
Тmin Tmax R s Состояние
почвы
15 19.07.17 010 (С) 20000 м    ясно 
+27.8 +9.4 32 +28  1011.5  -0.6  746  271    +33.1       
18 19.07.17 340 (С) н/о    ясно 
+23.9 +8.9 38 +24  1011.6  -0.1  746  275    +33.1       
21 19.07.17 тихо ()   н/о    ясно 
+18 +7.8 51 +18  1011.6  -0.4  745  280           
00 20.07.17 040 (СВ) 20000 м    ясно 
+17.4 +7.6 53 +19  1011.4  -0.2  745  281           
03 20.07.17 090 (В) 20000 м    ясно 
+25.7 +6.2 29 +26  1011.5  0.6  746  274           
06 20.07.17 040 (СВ) 20000 м    ясно 
+31.5 +5.6 20 +32  1011.1  746  268  +17         
09 20.07.17 030 (СВ) 20000 м    ясно 
+33.4 +4.8 17 +33  1010.2  -0.8  745  267           
12 20.07.17 010 (С) 20000 м    ясно 
+33.8 +1.5 13 +34  1008.7  -1.4  744  266           
15 20.07.17 010 (С) 20000 м    ясно 
+30 +11.9 33 +34  1008.7  -0.5  744  268    +35       
18 20.07.17 340 (С) н/о    ясно 
+25.7 +10 37 +27  1009.5  0.6  744  272    +35       
21 20.07.17 010 (С) н/о    ясно 
+22.1 +8.5 42 +22  1009.3  -0.4  744  276           
00 21.07.17 010 (С) 20000 м    ясно 
+19.2 +8.2 49 +21  1009.6  0.2  744  279           
03 21.07.17 330 (СЗ) 20000 м    ясно 
+25 +6.2 30 +25  1010.3  0.9  745  274           
06 21.07.17 120 (ЮВ) 20000 м    ясно 
+33.3 +7.1 20 +33  1010  0.2  745  266  +18.4         
09 21.07.17 090 (В) 20000 м    ясно 
+34.8 +7.6 19 +35  1009.4  -0.5  744  265           
12 21.07.17 050 (СВ) 20000 м    ясно 
+35 +8.4 20 +35  1008.7  -0.6  744  264           
15 21.07.17 040 (СВ) 20000 м    ясно 
+30.6 +10.3 29 +32  1008.6  -0.3  744  268    +36.3       
18 21.07.17 тихо ()   н/о    ясно 
+24.2 +11.4 45 +27  1009.5  0.4  744  273    +36.3       
21 21.07.17 тихо ()   н/о    ясно 
+23.4 +10.6 44 +26  1009.1  -0.4  744  274           
00 22.07.17 тихо ()   20000 м    ясно 
+19.1 +10.4 57 +21  1009.4  0.1  744  278           
03 22.07.17 тихо ()   20000 м    ясно 
+27.2 +12.4 40 +32  1010.2  1.1  745  271           
06 22.07.17 320 (СЗ) 20000 м    ясно 
+34.8 +9.4 21 +35  1009.8  0.1  745  265  +19.1         
09 22.07.17 360 (С) 20000 м    ясно 
+37.2 +9.3 18 +38  1008.7  -0.9  744  262           
12 22.07.17 350 (С) 20000 м    ясно 
+37.5 +9.5 18 +38  1007.9  -0.8  743  262           
15 22.07.17 020 (С) 20000 м    ясно 
+31.9 +10.6 27 +34  1008.4  0.2  744  266    +38.5       
Время (UTC), дата Ветер
(°,м/с) 
Видим.   Явления Облачность Т
(°С)
Тd
(°С)
f(%) Тe
(°С)
Pmin
(гПа)
dP
(гПа)
Po
(мм)
O2
(г/м3)
Тmin Tmax R s Состояние
почвы

Для получения пояснительной информации подведите курсор к названию столбца.

ПОГОДА в Шиели - архив

Всё, что Вы хотите узнать о погоде в Шиели - удобно и подробно!

Выберите нужную дату (начиная с 1 января 2015* года) и нажмите кнопку "Найти".
Будут отображены архивные сводки погоды по пункту Шиели, начиная с указанной даты.


Отображать данные в формате CSV (для использования в таблицах Excel)


Внимание! Наш архив погоды предназначен исключительно для личного некоммерческого использования в познавательных целях. Если Вам необходимы официальные справки о состоянии погоды (для производственных, юридических, коммерческих и т.п. целей), обращайтесь в органы Росгидромета.

*Примечание: данная дата относится к архиву по метеостанциям СССР (Россия, СНГ, Балтия).
Архив по метеостанциям Зарубежной Европы и Азии (кроме Китая) хранится 10 дней, по другим регионам земного шара (Китай, Африка, Америка, Австралия, Океания) - 1 день.

Шиели - район местоположения метеостанции


Название, широта, долгота, высота метеостанции:
Шиели (Чиили) 44.2°ш. 66.8°д. 153 м над ур. моря [Казахстан]

Дополнительная информация

В oтличие oт бoльшинства пoгoдных сайтoв мы публикуем пoдрoбную метеoинфoрмацию в детальнoм прoфессиoнальнoм фoрмате.

Характеристики температуры и влажнoсти вoздуха измеряются на высoте 2 м в тени вдали oт зданий и деревьев.
Скoрoсть ветра измеряется на высoте 10 м (на урoвне рoста челoвека скoрoсть ветра ниже в 1.5-2 раза). Если метеoстанция нахoдится в гoрoде или в лесу, тo скoрoсть ветра занижена на 2-4 м/с пo сравнению с oткрытым местoм. Скoрoсть ветра над акватoриями крупных рек и oзёр, а также на вершинах хoлмoв на 2-5 м/с выше, чем в oбычных услoвиях.
Атмoсфернoе давление в разных тoчках местнoсти мoжет значительнo oтличаться oт давления на метеoстанции, в зависимoсти oт услoвий рельефа (при пoдъёме на 10 м давление пoнижается примернo на 1 мм рт.ст.).